Printer-friendly version
Follow the MPC on Twitter Follow the MPC on Facebook The MPC blog
Minor Planet Center

MPEC 2010-J58 : 2010 JW34

The following Minor Planet Electronic Circular may be linked-to from your own Web pages, but must not otherwise be redistributed electronically.

A form allowing access to any MPEC is at the bottom of this page.


Read MPEC 2010-J57 Read MPEC 2010-J59


M.P.E.C. 2010-J58                                Issued 2010 May  9, 18:36 UT

     The Minor Planet Electronic Circulars contain information on unusual
         minor planets and routine data on comets.  They are published
   on behalf of Commission 20 of the International Astronomical Union by the
          Minor Planet Center, Smithsonian Astrophysical Observatory,
                          Cambridge, MA 02138, U.S.A.

             Prepared using the Tamkin Foundation Computer Network

                              MPC@CFA.HARVARD.EDU
       URL http://www.minorplanetcenter.org/iau/mpc.html  ISSN 1523-6714

                                   2010 JW34

Observations:
     K10J34W* C2010 05 08.29211 14 09 32.47 +13 13 45.0          18.6 V EJ058703
     K10J34W  C2010 05 08.29898 14 09 24.12 +13 11 09.8          18.5 V EJ058703
     K10J34W  C2010 05 08.30588 14 09 15.91 +13 08 35.3          18.7 V EJ058703
     K10J34W  C2010 05 08.39598 14 07 32.37 +12 34 11.1          19.1 V EJ058703
     K10J34W  C2010 05 08.39631 14 07 31.98 +12 34 03.6          18.9 V EJ058703
     K10J34W  C2010 05 08.39665 14 07 31.62 +12 33 56.1          18.7 V EJ058703
     K10J34W  C2010 05 08.39701 14 07 31.33 +12 33 47.8          18.5 V EJ058703
     K10J34W  C2010 05 08.40214 14 07 25.89 +12 31 49.4          18.7 V EJ058703
     K10J34W  C2010 05 08.40248 14 07 25.46 +12 31 40.4          19.3 V EJ058703
     K10J34W  C2010 05 08.40282 14 07 25.06 +12 31 33.6          18.4 V EJ058703
     K10J34W  C2010 05 08.40319 14 07 24.67 +12 31 24.4          18.5 V EJ058703
     K10J34W  C2010 05 08.41893 14 07 08.36 +12 25 20.5          18.4 V EJ058703
     K10J34W  C2010 05 08.41929 14 07 07.96 +12 25 11.6          18.4 V EJ058703
     K10J34W  C2010 05 08.41964 14 07 07.57 +12 25 04.5          18.9 V EJ058703
     K10J34W  C2010 05 08.41999 14 07 07.21 +12 24 56.1          18.8 V EJ058703
     K10J34W  C2010 05 08.47083 14 07 27.89 +12 30 09.8          18.6 R EJ058474
     K10J34W  C2010 05 08.47141 14 07 27.32 +12 29 56.4          18.8 R EJ058474
     K10J34W  C2010 05 08.47199 14 07 26.56 +12 29 43.3          18.6 R EJ058474
     K10J34W  C2010 05 08.47581 14 07 22.29 +12 28 19.5          18.4 R EJ058474
     K10J34W  C2010 05 08.47650 14 07 21.50 +12 28 04.2          18.3 R EJ058474
     K10J34W  C2010 05 08.47707 14 07 20.85 +12 27 52.1          18.6 R EJ058474
     K10J34W  C2010 05 08.47766 14 07 20.21 +12 27 39.5          18.4 R EJ058474
     K10J34W  C2010 05 08.54173 14 06 46.57 +11 41 00.3          18.2 R EJ058300
     K10J34W  C2010 05 08.54238 14 06 45.67 +11 40 46.2          18.7 R EJ058300
     K10J34W  C2010 05 08.54431 14 06 43.53 +11 40 04.3          18.1 R EJ058300
     K10J34W KC2010 05 08.94473 14 01 23.12 +09 15 04.7          18.6 R EJ058B33
     K10J34W KC2010 05 08.94698 14 01 20.72 +09 14 17.4          18.6 R EJ058B33
     K10J34W KC2010 05 08.95034 14 01 17.16 +09 13 06.3          18.4 R EJ058B33
     K10J34W  C2010 05 09.21557413 58 12.66 +07 43 11.8          18.8 V EJ058H21
     K10J34W  C2010 05 09.21617 13 58 13.67 +07 42 07.5          17.9 R EJ058H26
     K10J34W  C2010 05 09.21630 13 58 36.03 +07 44 54.8          18.7 R EJ058854
     K10J34W  C2010 05 09.21704 13 58 12.67 +07 41 48.4          18.2 R EJ058H26
     K10J34W  C2010 05 09.21814 13 58 34.04 +07 44 17.6          19.0 R EJ058854
     K10J34W  C2010 05 09.21838013 58 09.72 +07 42 14.4          18.6 V EJ058H21
     K10J34W  C2010 05 09.21963 13 58 09.99 +07 40 58.1          18.4 R EJ058H26
     K10J34W  C2010 05 09.21999 13 58 32.10 +07 43 39.3          18.6 R EJ058854
     K10J34W  C2010 05 09.22050 13 58 09.10 +07 40 40.1          18.0 R EJ058H26
     K10J34W  C2010 05 09.22120013 58 06.75 +07 41 17.0          18.5 V EJ058H21
     K10J34W  C2010 05 09.22392413 58 03.91 +07 40 21.6          18.7 V EJ058H21
     K10J34W  C2010 05 09.42321 13 56 16.12 +06 57 31.1          18.5 R EJ058474
     K10J34W  C2010 05 09.42378 13 56 15.57 +06 57 19.9          18.8 R EJ058474
     K10J34W  C2010 05 09.42425 13 56 15.09 +06 57 10.7          18.6 R EJ058474
     K10J34W  C2010 05 09.42483 13 56 14.51 +06 56 59.6          18.7 R EJ058474

Observer details:
300 Bisei Spaceguard Center--BATTeRS.  Observers A. Asami, N. Hashimoto.
    1.0-m f/3.0 reflector + CCD.
474 Mount John Observatory, Lake Tekapo.  Observers A. C. Gilmore,
    P. M. Kilmartin.  Measurer P. M. Kilmartin.  1.0-m f/7.7 reflector + CCD.
703 Catalina Sky Survey.  Observer A. R. Gibbs.  Measurers J. D. Ahern,
    E. C. Beshore, A. Boattini, G. J. Garradd, A. R. Gibbs, A. D. Grauer,
    R. E. Hill, R. A. Kowalski, S. M. Larson, R. H. McNaught.  0.68-m Schmidt
    + CCD.
854 Sabino Canyon Observatory, Tucson.  Observer J. E. McGaha.  0.36-m f/10.0
    Schmidt-Cassegrain + CCD.
B33 Libbiano Observatory, Peccioli.  Observers P. Bacci, R. Emilio.  Measurer
    P. Bacci.  0.5-m f/8 Ritchey-Chretien + CCD.
H21 Astronomical Research Observatory, Westfield.  Observer R. Holmes.
    Measurer S. Foglia.
H26 Doc Greiner Research Observatory, Janesvillle.  Observer M. Mills.  0.40-m
    f/8 Schmidt-Cassegrain + CCD.

Orbital elements:
2010 JW34                                                Earth MOID = 0.0082 AU
Epoch 2010 July 23.0 TT = JDT 2455400.5                 MPC
M 203.49090              (2000.0)            P               Q
n   1.01112574     Peri.   44.59407     -0.09572221     -0.99493696
a   0.9831036      Node    50.92324     +0.90189947     -0.09970640
e   0.0548126      Incl.    2.26066     +0.42120614     -0.01261238
P   0.97           H   28.0           G   0.15           U   6
Residuals in seconds of arc
100508 703  0.7-  0.2+    100508 474  0.1-  0.6+    100509 854  0.6-  0.0
100508 703  0.9-  0.1+    100508 474  1.1+  0.1-    100509 H26  0.1-  1.3-
100508 703  1.0+  1.8+    100508 474  0.4-  0.5-    100509 854  0.8-  0.2-
100508 703  0.1+  0.1-    100508 474  0.2+  0.6-    100509 H21  0.2-  0.6-
100508 703  0.4-  0.1+    100508 474  0.1+  0.8-    100509 H26  0.2-  1.1+
100508 703  0.3-  0.4+    100508 474  0.0   0.4-    100509 854  0.1-  1.4-
100508 703  1.0+  0.4+    100508 474  0.3+  0.0     100509 H26  0.1-  0.8+
100508 703  1.3+  0.4+    100508 300  1.2+  0.1+    100509 H21  0.5-  0.6-
100508 703  0.2+  0.7-    100508 300  1.0-  0.0     100509 H21  0.3-  0.4-
100508 703  0.4-  0.3+    100508 300  0.3+  0.5-    100509 474  0.2+  0.2+
100508 703  0.4-  0.3-    100508 B33  0.6+  1.2+    100509 474  0.3+  0.2+
100508 703  0.0   0.4-    100508 B33  0.4+  1.1+    100509 474  0.1+  0.3+
100508 703  0.5-  1.0-    100508 B33  0.5+  0.6+    100509 474  0.1-  0.6+
100508 703  1.0-  0.0     100509 H21  0.3-  0.4-
100508 703  1.0-  0.3-    100509 H26  1.4+  0.1+

Ephemeris:
2010 JW34                a,e,i = 0.98, 0.05, 2                   q = 0.9292
Date    TT    R. A. (2000) Decl.     Delta      r     Elong.  Phase     V
2010 05 04    15 32.05   +42 28.2    0.00697  1.012   120.6    59.0    19.4
2010 05 07    14 28.64   +21 46.0    0.00718  1.015   141.0    38.7    18.9
2010 05 10    13 49.83   +03 40.4    0.00841  1.017   151.6    28.2    18.9
2010 05 13    13 24.78   -08 59.4    0.0103   1.019   150.9    28.8    19.4
2010 05 16    13 08.00   -17 23.5    0.0126   1.022   146.3    33.4    20.0
2010 05 19    12 56.66   -23 05.5    0.0152   1.024   141.5    38.0    20.5
2010 05 22    12 49.04   -27 07.9    0.0178   1.025   137.3    42.0    20.9
2010 05 25    12 44.02   -30 07.2    0.0205   1.027   133.8    45.3    21.4
2010 05 28    12 40.83   -32 24.6    0.0233   1.029   130.8    48.2    21.7
2010 05 31    12 39.02   -34 12.8    0.0261   1.030   128.1    50.7    22.0
2010 06 03    12 38.31   -35 39.9    0.0289   1.031   125.7    53.0    22.3
2010 06 06    12 38.55   -36 51.4    0.0317   1.033   123.5    55.0    22.6
2010 06 09    12 39.65   -37 51.4    0.0345   1.034   121.6    56.8    22.8
2010 06 12    12 41.55   -38 42.9    0.0374   1.034   119.7    58.5    23.0

Carl W. Hergenrother         (C) Copyright 2010 MPC           M.P.E.C. 2010-J58

Read MPEC 2010-J57 Read MPEC 2010-J59


MPEC number:

Enter an MPEC number in one of the following forms:

  • 1997-B01 (the full form)
  • J97B01 (the packed version of the full form)
  • B01 (the abbreviated form)

Valid HTML 4.01!